Time,TemperatureF,DewpointF,PressureIn,WindDirection,WindDirectionDegrees,WindSpeedMPH,WindSpeedGustMPH,Humidity,HourlyPrecipIn,Conditions,Clouds,dailyrainin,SoftwareType,DateUTC
2013-08-02 00:12:00,71.4,69.0,29.95,NNE,14,0.0,0.0,92,0.00,,,0.00,weatherlink.com 1.10,2013-08-02 04:12:00,
2013-08-02 00:27:00,70.8,69.0,29.95,NNE,15,0.0,0.0,93,0.00,,,0.00,weatherlink.com 1.10,2013-08-02 04:27:00,
2013-08-02 00:42:00,70.3,69.0,29.95,NNE,14,0.0,-999.0,94,-99.99,,,0.00,weatherlink.com 1.10,2013-08-02 04:42:00,
2013-08-02 00:57:00,70.1,68.0,29.95,NNE,15,0.0,1.0,94,0.00,,,0.00,weatherlink.com 1.10,2013-08-02 04:57:00,
2013-08-02 01:12:00,69.9,68.0,29.95,NNE,15,0.0,0.0,94,0.00,,,0.00,weatherlink.com 1.10,2013-08-02 05:12:00,
2013-08-02 01:27:00,70.1,68.0,29.96,NNE,14,0.0,1.0,94,0.00,,,0.00,weatherlink.com 1.10,2013-08-02 05:27:00,
2013-08-02 01:42:00,70.4,68.0,29.95,NNE,14,0.0,1.0,93,0.00,,,0.00,weatherlink.com 1.10,2013-08-02 05:42:00,
2013-08-02 01:57:00,70.3,68.0,29.95,North,6,0.0,0.0,93,0.00,,,0.00,weatherlink.com 1.10,2013-08-02 05:57:00,
2013-08-02 02:12:00,70.1,68.0,29.95,North,6,0.0,0.0,94,0.00,,,0.00,weatherlink.com 1.10,2013-08-02 06:12:00,
2013-08-02 02:27:00,69.7,68.0,29.95,North,6,0.0,1.0,94,0.00,,,0.00,weatherlink.com 1.10,2013-08-02 06:27:00,
2013-08-02 02:42:00,69.7,68.0,29.94,North,6,0.0,1.0,94,0.00,,,0.00,weatherlink.com 1.10,2013-08-02 06:42:00,
2013-08-02 02:57:00,69.6,68.0,29.93,North,6,0.0,1.0,94,0.00,,,0.00,weatherlink.com 1.10,2013-08-02 06:57:00,
2013-08-02 03:12:00,69.3,67.0,29.93,North,6,0.0,0.0,93,0.00,,,0.00,weatherlink.com 1.10,2013-08-02 07:12:00,
2013-08-02 03:27:00,69.0,67.0,29.93,North,6,0.0,0.0,94,0.00,,,0.00,weatherlink.com 1.10,2013-08-02 07:27:00,
2013-08-02 03:42:00,68.9,67.0,29.93,North,6,0.0,0.0,94,0.00,,,0.00,weatherlink.com 1.10,2013-08-02 07:42:00,
2013-08-02 03:57:00,68.5,67.0,29.93,North,6,0.0,0.0,94,0.00,,,0.00,weatherlink.com 1.10,2013-08-02 07:57:00,
2013-08-02 04:13:00,68.4,67.0,29.92,North,6,0.0,0.0,94,0.00,,,0.00,weatherlink.com 1.10,2013-08-02 08:13:00,
2013-08-02 04:28:00,68.0,67.0,29.92,North,6,0.0,0.0,95,0.00,,,0.00,weatherlink.com 1.10,2013-08-02 08:28:00,
2013-08-02 04:42:00,67.7,66.0,29.93,North,6,0.0,0.0,95,0.00,,,0.00,weatherlink.com 1.10,2013-08-02 08:42:00,
2013-08-02 04:58:00,67.4,66.0,29.93,North,6,0.0,0.0,95,0.00,,,0.00,weatherlink.com 1.10,2013-08-02 08:58:00,
2013-08-02 05:13:00,67.1,66.0,29.94,North,6,0.0,0.0,95,0.00,,,0.00,weatherlink.com 1.10,2013-08-02 09:13:00,
2013-08-02 05:28:00,67.7,66.0,29.94,North,8,0.0,1.0,95,0.00,,,0.00,weatherlink.com 1.10,2013-08-02 09:28:00,
2013-08-02 05:43:00,67.7,66.0,29.95,NNE,16,0.0,1.0,95,0.00,,,0.00,weatherlink.com 1.10,2013-08-02 09:43:00,
2013-08-02 05:58:00,67.8,66.0,29.95,NNE,16,0.0,1.0,95,0.00,,,0.00,weatherlink.com 1.10,2013-08-02 09:58:00,
2013-08-02 06:13:00,67.8,66.0,29.95,NNE,16,0.0,0.0,95,0.00,,,0.00,weatherlink.com 1.10,2013-08-02 10:13:00,
2013-08-02 06:28:00,67.6,66.0,29.95,NNE,16,0.0,0.0,95,0.00,,,0.00,weatherlink.com 1.10,2013-08-02 10:28:00,
2013-08-02 06:43:00,67.6,66.0,29.96,NNE,16,0.0,0.0,95,0.00,,,0.00,weatherlink.com 1.10,2013-08-02 10:43:00,
2013-08-02 06:58:00,67.4,66.0,29.96,NNE,15,0.0,0.0,95,0.00,,,0.00,weatherlink.com 1.10,2013-08-02 10:58:00,
2013-08-02 07:13:00,67.1,66.0,29.96,NNE,16,0.0,0.0,95,0.00,,,0.00,weatherlink.com 1.10,2013-08-02 11:13:00,
2013-08-02 07:28:00,66.9,66.0,29.97,NNE,15,0.0,0.0,95,0.00,,,0.00,weatherlink.com 1.10,2013-08-02 11:28:00,
2013-08-02 07:43:00,67.4,66.0,29.98,NNE,15,0.0,0.0,96,0.00,,,0.00,weatherlink.com 1.10,2013-08-02 11:43:00,
2013-08-02 07:58:00,67.8,67.0,29.98,NNE,16,0.0,0.0,96,0.00,,,0.00,weatherlink.com 1.10,2013-08-02 11:58:00,
2013-08-02 08:13:00,68.4,67.0,29.99,NNE,16,0.0,0.0,96,0.00,,,0.00,weatherlink.com 1.10,2013-08-02 12:13:00,
2013-08-02 08:28:00,68.8,68.0,29.99,NNE,15,0.0,0.0,96,0.00,,,0.00,weatherlink.com 1.10,2013-08-02 12:28:00,
2013-08-02 08:43:00,69.1,68.0,30.00,NNE,15,0.0,0.0,96,0.00,,,0.00,weatherlink.com 1.10,2013-08-02 12:43:00,
2013-08-02 08:58:00,69.7,68.0,30.00,NNE,15,0.0,0.0,95,0.00,,,0.00,weatherlink.com 1.10,2013-08-02 12:58:00,
2013-08-02 09:13:00,70.4,69.0,30.00,NNE,16,0.0,0.0,95,0.00,,,0.00,weatherlink.com 1.10,2013-08-02 13:13:00,
2013-08-02 09:28:00,71.4,69.0,30.01,NNE,16,0.0,0.0,93,0.00,,,0.00,weatherlink.com 1.10,2013-08-02 13:28:00,
2013-08-02 09:43:00,71.9,70.0,30.00,NNE,16,0.0,0.0,93,0.00,,,0.00,weatherlink.com 1.10,2013-08-02 13:43:00,
2013-08-02 09:58:00,72.5,70.0,30.01,NNE,15,0.0,1.0,92,0.00,,,0.00,weatherlink.com 1.10,2013-08-02 13:58:00,
2013-08-02 10:13:00,73.0,70.0,30.00,NNE,16,0.0,0.0,90,0.00,,,0.00,weatherlink.com 1.10,2013-08-02 14:13:00,
2013-08-02 10:28:00,73.7,70.0,30.00,NNE,16,0.0,1.0,87,0.00,,,0.00,weatherlink.com 1.10,2013-08-02 14:28:00,
2013-08-02 10:43:00,74.8,70.0,30.01,NNE,15,0.0,1.0,85,0.00,,,0.00,weatherlink.com 1.10,2013-08-02 14:43:00,
2013-08-02 10:58:00,75.3,70.0,30.02,NNE,16,0.0,1.0,83,0.00,,,0.00,weatherlink.com 1.10,2013-08-02 14:58:00,
2013-08-02 11:13:00,76.6,70.0,30.02,WNW,294,0.0,0.0,81,0.00,,,0.00,weatherlink.com 1.10,2013-08-02 15:13:00,
2013-08-02 11:28:00,77.5,70.0,30.02,SW,217,0.0,1.0,77,0.00,,,0.00,weatherlink.com 1.10,2013-08-02 15:28:00,
2013-08-02 11:43:00,79.5,71.0,30.02,ENE,67,0.0,2.0,74,0.00,,,0.00,weatherlink.com 1.10,2013-08-02 15:43:00,
2013-08-02 11:58:00,82.4,70.0,30.02,West,260,0.0,3.0,67,0.00,,,0.00,weatherlink.com 1.10,2013-08-02 15:58:00,
2013-08-02 12:13:00,83.6,70.0,30.02,NNE,27,0.0,1.0,64,0.00,,,0.00,weatherlink.com 1.10,2013-08-02 16:13:00,
2013-08-02 12:29:00,85.1,73.0,30.02,North,11,0.0,1.0,68,0.00,,,0.00,weatherlink.com 1.10,2013-08-02 16:29:00,
2013-08-02 12:44:00,82.8,71.0,30.01,NNE,21,0.0,1.0,68,0.00,,,0.00,weatherlink.com 1.10,2013-08-02 16:44:00,
2013-08-02 12:59:00,85.0,69.0,30.01,SSW,193,0.0,1.0,59,0.00,,,0.00,weatherlink.com 1.10,2013-08-02 16:59:00,
2013-08-02 13:14:00,84.1,71.0,30.01,WNW,300,0.0,1.0,64,0.00,,,0.00,weatherlink.com 1.10,2013-08-02 17:14:00,
2013-08-02 13:29:00,87.5,69.0,30.01,West,259,4.0,5.0,54,0.00,,,0.00,weatherlink.com 1.10,2013-08-02 17:29:00,
2013-08-02 13:44:00,87.5,67.0,30.01,North,3,0.0,1.0,51,0.00,,,0.00,weatherlink.com 1.10,2013-08-02 17:44:00,
2013-08-02 13:59:00,89.4,67.0,30.01,North,6,0.0,2.0,47,0.00,,,0.00,weatherlink.com 1.10,2013-08-02 17:59:00,
2013-08-02 14:14:00,89.9,69.0,30.01,NW,306,0.0,1.0,51,0.00,,,0.00,weatherlink.com 1.10,2013-08-02 18:14:00,
2013-08-02 14:29:00,89.2,71.0,30.00,East,83,1.0,2.0,55,0.00,,,0.00,weatherlink.com 1.10,2013-08-02 18:29:00,
2013-08-02 14:44:00,88.3,72.0,30.00,North,360,0.0,2.0,59,0.00,,,0.00,weatherlink.com 1.10,2013-08-02 18:44:00,
2013-08-02 14:59:00,89.0,68.0,29.99,NNW,340,0.0,1.0,50,0.00,,,0.00,weatherlink.com 1.10,2013-08-02 18:59:00,
2013-08-02 15:14:00,88.4,70.0,30.00,North,9,0.0,2.0,54,0.00,,,0.00,weatherlink.com 1.10,2013-08-02 19:14:00,
2013-08-02 15:29:00,89.7,67.0,29.99,North,360,0.0,3.0,47,0.00,,,0.00,weatherlink.com 1.10,2013-08-02 19:29:00,
2013-08-02 15:44:00,91.3,66.0,30.00,SW,219,1.0,3.0,44,0.00,,,0.00,weatherlink.com 1.10,2013-08-02 19:44:00,
2013-08-02 15:59:00,91.5,67.0,29.99,NNE,23,1.0,2.0,45,0.00,,,0.00,weatherlink.com 1.10,2013-08-02 19:59:00,
2013-08-02 16:14:00,90.8,66.0,29.99,WSW,243,0.0,3.0,44,0.00,,,0.00,weatherlink.com 1.10,2013-08-02 20:14:00,
2013-08-02 16:29:00,90.5,66.0,29.99,North,1,2.0,4.0,45,0.00,,,0.00,weatherlink.com 1.10,2013-08-02 20:29:00,
2013-08-02 16:44:00,90.3,70.0,29.99,East,86,0.0,2.0,52,0.00,,,0.00,weatherlink.com 1.10,2013-08-02 20:44:00,
2013-08-02 16:59:00,90.2,68.0,29.98,NE,47,0.0,3.0,48,0.00,,,0.00,weatherlink.com 1.10,2013-08-02 20:59:00,
2013-08-02 17:14:00,90.2,66.0,29.98,West,263,0.0,2.0,45,0.00,,,0.00,weatherlink.com 1.10,2013-08-02 21:14:00,
2013-08-02 17:29:00,89.9,66.0,29.98,North,10,0.0,2.0,45,0.00,,,0.00,weatherlink.com 1.10,2013-08-02 21:29:00,
2013-08-02 17:44:00,88.9,66.0,29.98,WNW,285,0.0,3.0,47,0.00,,,0.00,weatherlink.com 1.10,2013-08-02 21:44:00,
2013-08-02 17:59:00,89.4,67.0,29.98,NW,314,0.0,2.0,47,0.00,,,0.00,weatherlink.com 1.10,2013-08-02 21:59:00,
2013-08-02 18:14:00,89.3,68.0,29.97,NW,308,0.0,1.0,50,0.00,,,0.00,weatherlink.com 1.10,2013-08-02 22:14:00,
2013-08-02 18:29:00,87.7,67.0,29.97,NNE,20,0.0,1.0,50,0.00,,,0.00,weatherlink.com 1.10,2013-08-02 22:29:00,
2013-08-02 18:44:00,88.9,66.0,29.97,WSW,240,0.0,1.0,47,0.00,,,0.00,weatherlink.com 1.10,2013-08-02 22:44:00,
2013-08-02 18:59:00,88.9,66.0,29.97,SW,233,0.0,1.0,47,0.00,,,0.00,weatherlink.com 1.10,2013-08-02 22:59:00,
2013-08-02 19:14:00,88.0,65.0,29.97,North,350,0.0,2.0,46,0.00,,,0.00,weatherlink.com 1.10,2013-08-02 23:14:00,
2013-08-02 19:29:00,86.2,69.0,29.98,North,359,0.0,1.0,57,0.00,,,0.00,weatherlink.com 1.10,2013-08-02 23:29:00,
2013-08-02 19:44:00,83.8,69.0,29.98,North,359,0.0,0.0,61,0.00,,,0.00,weatherlink.com 1.10,2013-08-02 23:44:00,
2013-08-02 19:59:00,80.4,68.0,29.98,North,360,0.0,0.0,66,0.00,,,0.00,weatherlink.com 1.10,2013-08-02 23:59:00,
2013-08-02 20:14:00,78.5,68.0,29.99,North,360,0.0,0.0,71,0.00,,,0.00,weatherlink.com 1.10,2013-08-03 00:14:00,
2013-08-02 20:29:00,77.0,69.0,29.99,North,359,0.0,0.0,76,0.00,,,0.00,weatherlink.com 1.10,2013-08-03 00:29:00,
2013-08-02 20:44:00,75.8,69.0,29.99,North,360,0.0,0.0,78,0.00,,,0.00,weatherlink.com 1.10,2013-08-03 00:44:00,
2013-08-02 20:59:00,74.9,69.0,30.00,North,359,0.0,0.0,82,0.00,,,0.00,weatherlink.com 1.10,2013-08-03 00:59:00,
2013-08-02 21:14:00,74.0,69.0,30.00,North,360,0.0,0.0,84,0.00,,,0.00,weatherlink.com 1.10,2013-08-03 01:14:00,
2013-08-02 21:29:00,73.4,69.0,30.01,North,360,0.0,0.0,85,0.00,,,0.00,weatherlink.com 1.10,2013-08-03 01:29:00,
2013-08-02 21:44:00,72.9,69.0,30.01,North,360,0.0,0.0,86,0.00,,,0.00,weatherlink.com 1.10,2013-08-03 01:44:00,
2013-08-02 21:59:00,72.4,69.0,30.02,North,360,0.0,0.0,88,0.00,,,0.00,weatherlink.com 1.10,2013-08-03 01:59:00,
2013-08-02 22:14:00,71.9,68.0,30.02,North,360,0.0,0.0,88,0.00,,,0.00,weatherlink.com 1.10,2013-08-03 02:14:00,
2013-08-02 22:29:00,71.4,68.0,30.01,North,360,0.0,0.0,89,0.00,,,0.00,weatherlink.com 1.10,2013-08-03 02:29:00,
2013-08-02 22:44:00,71.1,68.0,30.02,North,359,0.0,0.0,89,0.00,,,0.00,weatherlink.com 1.10,2013-08-03 02:44:00,
2013-08-02 22:59:00,70.7,68.0,30.02,North,360,0.0,0.0,90,0.00,,,0.00,weatherlink.com 1.10,2013-08-03 02:59:00,
2013-08-02 23:14:00,70.3,68.0,30.02,North,358,0.0,0.0,91,0.00,,,0.00,weatherlink.com 1.10,2013-08-03 03:14:00,
2013-08-02 23:29:00,70.0,68.0,30.02,North,360,0.0,0.0,92,0.00,,,0.00,weatherlink.com 1.10,2013-08-03 03:29:00,
2013-08-02 23:44:00,69.9,68.0,30.03,North,359,0.0,0.0,93,0.00,,,0.00,weatherlink.com 1.10,2013-08-03 03:44:00,
2013-08-02 23:59:00,69.5,68.0,30.03,North,359,0.0,0.0,93,0.00,,,0.00,weatherlink.com 1.10,2013-08-03 03:59:00,